CZ-6A DEB, 55542

Orbit data source: Space-Track

CZ-6A DEB, 55542 is space debris in SSO originally from a launch on Fri, 11 Nov 2022 UTC launched from the Taiyaun Space Center, China (TSC). Debris objects in space refer to the collection of defunct objects orbiting the Earth. Examples of debris include non-operational satellites, rocket bodies, and fragments generated from explosions, collisions, or faulty payload assembly.

Loading next visibility...
Identifier
55542, 2022-151YQ
Orbit
SSO
Country
Flag of CNCN / PRC
Related business
Manufacturer
SAST
Mission
Spacecraft
Bus & Motor
Unknown
Mass
Unknown
Launch date (UTC)
2022-11-11 (3 years ago)
Launch vehicle
Unknown
Launch site
Taiyaun Space Center, China (TSC)
Object type
Payload
Rocket body
Debris
Shape & HBR
Unknown shape, 0.1 m
Radar Cross Section
Small (<0.1 m²)

Expand to show TLE details & history
Last TLE update: 1 day ago

TLE from 1 day ago
0 CZ-6A DEB
1 55542U 22151YQ  25352.90472327  .00002280  00000-0  10228-2 0  9990
2 55542  98.8110   9.7713 0015694  41.3486 318.8877 14.23402749155153
Epoch: 2025-12-18T21:42Z
TLE epoch observation values (Epoch: 2025-12-18T21:42:48.090Z)
Latitude
-0.00004°
Longitude
-43.6826°
Altitude
808.286 km
Speed
7.454 km/s
True Right ascension
00h 39m 05s
True Declination
0° 00' 00"
Sunlit
Object was in daylight at epoch
Visualization orbit readout
Latitude
Unknown
Longitude
Unknown
Altitude
Unknown
Speed
Unknown
Apparent Right ascension
Unknown
Apparent Declination
Unknown
Sunlit
N/A
Visualization observer readout
Local Sidereal Time
06:46:02
Azimuth
Unknown
Elevation
Unknown
Doppler factor
Unknown
Orbital elements
Apogee altitude
822.309 km
Perigee altitude
799.744 km
Semi-major axis
7,189.164 km
Eccentricity
0.00157
Inclination
98.811°
RAAN
9.7713°
Arg. of periapsis
41.3486°
True anomaly
318.76927°
Mean anomaly
318.8877°
Eccentric anomaly
318.8285°
Mean motion
3.56062 °/min
Orbital period
101.11 mins
BSTAR
0.0010228
Loading maneuver chart data...
Computing Atmospheric mass density...
Loading historical data...
Loading historical data...
Loading historical data...
Loading historical data...
Loading historical data...
Loading historical data...
Loading historical data...

Documentation

Showing up to 5 results
|